TimeCDT,TemperatureF,Dew PointF,Humidity,Sea Level PressureIn,VisibilityMPH,Wind Direction,Wind SpeedMPH,Gust SpeedMPH,PrecipitationIn,Events,Conditions,WindDirDegrees,DateUTC
12:33 AM,75.2,69.8,83,29.96,9.0,South,9.2,17.3,N/A,,Scattered Clouds,170,2012-04-16 05:33:00
12:53 AM,75.0,70.0,84,29.97,9.0,South,6.9,-,N/A,,Scattered Clouds,170,2012-04-16 05:53:00
1:11 AM,75.2,69.8,83,29.98,9.0,South,4.6,-,N/A,,Mostly Cloudy,170,2012-04-16 06:11:00
1:53 AM,73.9,70.0,87,29.97,9.0,South,5.8,-,N/A,,Overcast,180,2012-04-16 06:53:00
2:38 AM,73.4,69.8,88,29.97,8.0,SSE,5.8,-,N/A,,Mostly Cloudy,160,2012-04-16 07:38:00
2:53 AM,73.0,69.1,87,29.98,8.0,South,3.5,-,N/A,,Mostly Cloudy,170,2012-04-16 07:53:00
3:53 AM,73.0,69.1,87,29.99,8.0,Calm,Calm,-,N/A,,Partly Cloudy,0,2012-04-16 08:53:00
4:53 AM,71.1,69.1,93,29.99,6.0,Calm,Calm,-,N/A,,Mostly Cloudy,0,2012-04-16 09:53:00
5:53 AM,71.6,69.8,94,30.01,6.0,Calm,Calm,-,N/A,,Clear,0,2012-04-16 10:53:00
6:53 AM,71.1,69.1,93,30.02,4.0,SE,3.5,-,N/A,,Clear,130,2012-04-16 11:53:00
7:28 AM,71.6,69.8,94,30.05,5.0,Calm,Calm,-,N/A,,Mostly Cloudy,0,2012-04-16 12:28:00
7:53 AM,73.0,70.0,90,30.07,5.0,NNE,5.8,-,N/A,,Overcast,20,2012-04-16 12:53:00
8:53 AM,73.9,70.0,87,30.10,5.0,NE,3.5,-,N/A,,Overcast,50,2012-04-16 13:53:00
9:02 AM,73.4,69.8,88,30.10,5.0,Calm,Calm,-,N/A,,Overcast,0,2012-04-16 14:02:00
9:20 AM,75.2,71.6,89,30.09,6.0,Calm,Calm,-,N/A,,Haze,0,2012-04-16 14:20:00
9:53 AM,77.0,71.1,82,30.10,7.0,Calm,Calm,-,N/A,,Overcast,0,2012-04-16 14:53:00
10:34 AM,73.4,66.2,78,30.12,7.0,WSW,8.1,-,0.01,Rain,Light Rain,250,2012-04-16 15:34:00
10:36 AM,73.4,66.2,78,30.14,1.5,West,15.0,-,0.12,Thunderstorm,Unknown,260,2012-04-16 15:36:00
10:41 AM,69.8,66.2,88,30.15,1.5,NW,20.7,28.8,0.39,Fog-Thunderstorm,Unknown,310,2012-04-16 15:41:00
10:44 AM,68.0,64.4,88,30.15,0.5,NNW,21.9,28.8,0.51,Fog-Thunderstorm,Unknown,330,2012-04-16 15:44:00
10:49 AM,66.2,64.4,94,30.16,0.5,NNW,16.1,26.5,0.65,Fog-Thunderstorm,Unknown,340,2012-04-16 15:49:00
10:53 AM,66.9,64.9,93,30.17,0.8,NW,16.1,-,0.78,Thunderstorm,Overcast,310,2012-04-16 15:53:00
11:00 AM,66.2,64.4,94,30.15,0.5,North,16.1,-,0.38,Fog-Rain-Thunderstorm,Heavy Thunderstorms and Rain,350,2012-04-16 16:00:00
11:12 AM,66.2,64.4,94,30.15,2.0,North,13.8,-,0.46,Rain,Light Rain,10,2012-04-16 16:12:00
11:14 AM,66.2,64.4,94,30.15,4.0,North,12.7,-,0.46,Rain-Thunderstorm,Light Rain,360,2012-04-16 16:14:00
11:22 AM,66.2,64.4,94,30.14,10.0,North,12.7,-,0.46,Rain-Thunderstorm,Light Rain,360,2012-04-16 16:22:00
11:53 AM,68.0,64.9,90,30.13,10.0,NNE,10.4,-,0.46,Thunderstorm,Mostly Cloudy,30,2012-04-16 16:53:00
12:03 PM,69.8,64.4,83,30.13,10.0,NNE,11.5,-,N/A,,Scattered Clouds,20,2012-04-16 17:03:00
12:53 PM,71.1,64.9,81,30.09,10.0,ENE,6.9,-,N/A,,Mostly Cloudy,60,2012-04-16 17:53:00
1:53 PM,75.0,66.0,73,30.09,10.0,NE,8.1,-,N/A,,Clear,50,2012-04-16 18:53:00
2:53 PM,75.9,66.0,71,30.08,10.0,ENE,8.1,-,N/A,,Clear,60,2012-04-16 19:53:00
3:53 PM,75.0,66.0,73,30.06,10.0,ENE,5.8,-,N/A,,Clear,70,2012-04-16 20:53:00
4:53 PM,75.0,66.9,76,30.06,10.0,ENE,5.8,-,N/A,,Clear,60,2012-04-16 21:53:00
5:53 PM,73.9,66.0,76,30.07,10.0,NE,8.1,-,N/A,,Scattered Clouds,40,2012-04-16 22:53:00
6:53 PM,73.0,66.9,81,30.08,10.0,NNE,5.8,-,0.00,,Overcast,30,2012-04-16 23:53:00
7:53 PM,72.0,68.0,87,30.09,10.0,North,5.8,-,0.06,Rain,Light Rain,10,2012-04-17 00:53:00
8:53 PM,70.0,68.0,93,30.12,5.0,Calm,Calm,-,0.19,Rain,Rain,0,2012-04-17 01:53:00
9:48 PM,69.8,68.0,94,30.14,3.0,North,3.5,-,0.26,Rain-Thunderstorm,Heavy Rain,360,2012-04-17 02:48:00
9:53 PM,70.0,68.0,93,30.14,4.0,NNW,3.5,-,0.28,Rain-Thunderstorm,Heavy Rain,340,2012-04-17 02:53:00
10:41 PM,69.8,66.2,88,30.12,6.0,NNW,6.9,-,0.11,Rain,Rain,340,2012-04-17 03:41:00
10:53 PM,70.0,66.9,90,30.13,8.0,North,6.9,-,0.12,Rain,Light Rain,10,2012-04-17 03:53:00
11:53 PM,69.1,66.9,93,30.12,7.0,Variable,3.5,-,0.04,Rain,Light Rain,0,2012-04-17 04:53:00